Regional Weather Roundup
Issued by NWS Sterling, VA

Home | Current Version | Previous Version | Text Only | Print | Product List | Glossary On
Versions: 1 2 3 4 5 6 7 8 9 10 11 12 13 14 15 16 17 18 19 20 21 22 23 24 25 26 27 28 29 30 31 32 33 34 35 36 37 38 39 40 41 42 43 44 45 46 47 48 49 50
000
ASUS41 KLWX 242310
RWRLWX

REGIONAL WEATHER ROUNDUP
NATIONAL WEATHER SERVICE BALTIMORE MD/WASHINGTON DC
600 PM EST MON NOV 24 2014

Note: "FAIR" indicates few or no clouds below 12,000 feet
with no significant weather and/or obstructions to visibility.
 TC=TEMPERATURE CELSIUS

 * =Non NWS site. Station does not report precipitation (e.g. rain,
    snow, etc.), thunder, or fog.

DCZ001-MDZ009-015-VAZ040>042-051-053>054-250000-
WASHINGTON METRO

CITY           SKY/WX    TMP DP  RH WIND       PRES   REMARKS
WASHINGTON NAT CLEAR     63  50  62 S8        29.69R
DULLES         CLEAR     65  52  62 S9        29.68R
ANDREWS AFB    CLEAR     65  53  64 S12       29.69R
FT BELVOIR     CLEAR     66  53  61 S3        29.69R
QUANTICO       PTCLDY    59  49  69 SW12      29.70R
COLLEGE PARK*  CLEAR     68  54  60 S3        29.68R
LEESBURG*      CLEAR     66  55  68 S10       29.67R
GAITHERSBURG*  CLEAR     66  50  55 S8        29.71R

$$

MDZ006>007-011-014-250000-
BALTIMORE METRO

CITY           SKY/WX    TMP DP  RH WIND       PRES   REMARKS
BWI AIRPORT    CLEAR     68  52  56 S8        29.67R
MD SCIENCE CTR   N/A     68  52  56 MISG      29.66R
MARTIN STATE   CLEAR     55  52  88 SE7       29.68R
ANNAPOLIS      CLEAR     57  50  77 S7        29.69R
FORT MEADE*    CLEAR     64  52  63 S6        29.70R

$$

MDZ012-015-019>023-250000-
MARYLAND EASTERN SHORE

CITY           SKY/WX    TMP DP  RH WIND       PRES   REMARKS
OCEAN CITY     LGT RAIN  62  59  90 SW16G23   29.76S
SALISBURY      PTCLDY    69  60  73 S9        29.74R
BAY BRIDGE AP*   N/A     63  52  67 S12       29.70R
EASTON*        CLEAR     66  57  72 S12G17    29.74R

$$

MDZ017>025-250000-
SOUTHERN MARYLAND

CITY           SKY/WX    TMP DP  RH WIND       PRES   REMARKS
PATUXENT RIVER PTCLDY    68  56  65 S12       29.70S
ST INIGOES     PTCLDY    68  56  65 S13       29.72R
LEONARDTOWN*   CLEAR     68  55  64 S8        29.73R

$$

MDZ003>005-250000-
NORTH CENTRAL MARYLAND

CITY           SKY/WX    TMP DP  RH WIND       PRES   REMARKS
FREDERICK*     CLEAR     70  48  46 S14       29.66R
HAGERSTOWN APT CLEAR     66  50  56 S12       29.61R
WESTMINSTER*   CLEAR     64  52  63 S13G18    29.65R

$$

MDZ501>502-250000-
WESTERN MARYLAND

CITY           SKY/WX    TMP DP  RH WIND       PRES   REMARKS
OAKLAND*       PTCLDY    55  34  44 W12G24    29.68R
CUMBERLAND*    PTCLDY    72  39  30 S10G22    29.65R

$$

VAZ025>031-250000-
SHENANDOAH VALLEY

CITY           SKY/WX    TMP DP  RH WIND       PRES   REMARKS
WINCHESTER*    CLEAR     64  45  48 S7        29.64R
FRONT ROYAL*   FAIR      64  50  59 SW5       29.64R
LURAY*         FAIR      63  52  67 SW5       29.67R
NEW MARKET*    FAIR      62  50  64 SW8       29.67R
STAUNTON*      CLEAR     64  50  61 S9        29.70S
WAYNESBORO*    FAIR      63  51  64 S12       29.70R

$$

WVZ021-048>050-054>055-250000-
EASTERN WEST VIRGINIA PANHANDLE

CITY           SKY/WX    TMP DP  RH WIND       PRES   REMARKS
MARTINSBURG    CLEAR     66  48  52 S9        29.63R
PETERSBURG*    MOCLDY    72  33  24 SW6       29.63R

$$

VAZ036>039-050-250000-
CENTRAL FOOTHILLS

CITY           SKY/WX    TMP DP  RH WIND       PRES   REMARKS
CHARLOTTESVILL CLEAR     66  51  58 S9        29.69R
CULPEPER*      CLEAR     66  54  63 S5        29.69R
ORANGE*        CLEAR     68  54  60 S9        29.70S
GORDONSVILLE*  FAIR      66  53  63 S9G16     29.68S
WARRENTON*     FAIR      67  58  72 S3        29.69R

$$

VAZ055>057-250000-
NORTH AND CENTRAL PIEDMONT

CITY           SKY/WX    TMP DP  RH WIND       PRES   REMARKS
FREDERICKSBRG* CLEAR     70  55  59 S12G20    29.69R
STAFFORD*      CLEAR     69  52  54 S7        29.73R

$$

NCZ024-NYZ072-PAZ021-071-VAZ022-071-250000-
OTHER REGIONAL OBSERVATIONS

CITY           SKY/WX    TMP DP  RH WIND       PRES   REMARKS
NEW YORK CITY  CLEAR     67  54  63 MISG      29.68R
PHILADELPHIA   CLEAR     67  54  63 S14       29.68R
PITTSBURGH     CLEAR     57  42  57 W14G21    29.62R
ROANOKE        CLEAR     64  51  62 S9        29.76R
RICHMOND       PTCLDY    69  60  73 S13       29.73R
RALEIGH        MOCLDY    68  60  75 S13       29.81R

$$

ANZ530>537-250000-
MARINE OBSERVATIONS

STATION/POSITION TIME  TEMP    WIND        PRES
                       AIR SEA DIR/SP/G
                 (UTC) (F)     (DEG/KT/KT) (MB)
THOMAS PT LIGHT  2300   57 48  170/ 19/ 20 1006.4R
BALT KEY BRIDGE  2300   65     140/ 11/ 11 1004.2R
COVE POINT       2300   56     180/ 14/ 15 1005.9R
LEWISETTA        2300   69 49  220/ 12/ 16 1006.1R
SOLOMONS ISLAND  2300      51                N/A
PINEY POINT      2300          220/ 15/ 19   N/A

$$




USA.gov is the U.S. government's official web portal to all federal, state and local government web resources and services.